STARLINK-34372, 64301

Orbit data source: Space-Track

STARLINK-34372, 64301 is a payload satellite owned by SpaceX/Seattle (US) in LEO that was launched on Sun, 08 Jun 2025 UTC via an FALCON 9 launch vehicle from the Air Force Western Test Range (AFWTR). Payload-class satellites include a variety of spacecraft equipped with specific instruments for various scientific and technological missions. These include communications satellites like Starlink; space stations such as the ISS; scientific satellites like the Hubble; Earth observation satellites from companies like Planet Labs, Umbra, and HawkEye 360; GPS; miniature CubeSats for education and research; and military/defense satellites.

Loading next visibility...
Identifier
64301, 2025-123L
Orbit
LEO
Country
Flag of USUS
Related business
Manufacturer
SpaceX/Seattle
Mission
Operational Commercial Communications
Bus & Motor
STARLINK V2MO, Unknown motor
Mass
575 kg wet, ~530 kg dry
Launch date (UTC)
2025-06-08 (10 months ago)
Launch vehicle
FALCON 9
Launch site
Air Force Western Test Range (AFWTR)
Object type
Payload
Rocket body
Debris
Shape & HBR
Box + 2 Pan, 17.7 m
Radar Cross Section
36.964 m², Large (>1 m²)

Expand to show TLE details & history
Last TLE update: 19 hours ago

TLE from 19 hours ago
0 STARLINK-34372
1 64301U 25123L   26093.49745740  .00013296  00000-0  11200-2 0  9994
2 64301  70.0004 131.9454 0003384 265.7977  94.2795 14.98328580 45334
Epoch: 2026-04-03T11:56Z
TLE epoch observation values (Epoch: 2026-04-03T11:56:20.319Z)
Latitude
-0.00005°
Longitude
121.02998°
Altitude
574.661 km
Speed
7.574 km/s
True Right ascension
08h 47m 46s
True Declination
0° 00' 00"
Sunlit
Object was in full shadow at epoch
Visualization orbit readout
Latitude
Unknown
Longitude
Unknown
Altitude
Unknown
Speed
Unknown
Apparent Right ascension
Unknown
Apparent Declination
Unknown
Sunlit
N/A
Visualization observer readout
Local Sidereal Time
13:04:56
Azimuth
Unknown
Elevation
Unknown
Doppler factor
Unknown
Orbital elements
Apogee altitude
572.36 km
Perigee altitude
567.657 km
Semi-major axis
6,948.145 km
Eccentricity
0.00034
Inclination
70.0004°
RAAN
131.9454°
Arg. of periapsis
265.7977°
True anomaly
94.31817°
Mean anomaly
94.2795°
Eccentric anomaly
94.29883°
Mean motion
3.74748 °/min
Orbital period
96.06 mins
BSTAR
0.00112
Loading maneuver chart data...
Computing Atmospheric mass density...
Loading historical data...
Loading historical data...
Loading historical data...
Loading historical data...
Loading historical data...
Loading historical data...
Loading historical data...

Documentation

Showing up to 5 results
|